Terminal Aerodrome Forecast
Issued by NWS

Home | Current Version | Previous Version | Text Only | Print | Product List | Glossary On
Versions: 1 2 3 4 5 6 7 8 9 10 11 12 13 14 15 16 17 18
000
FTUS42 KMHX 271100
TAFISO
TAF
KISO 271130Z 2712/2812 16004KT P6SM VCSH SCT025 BKN050
     FM271500 27011G18KT P6SM SCT025 BKN050
     FM272300 32006KT P6SM SCT050
      AMD LTD TO CLD VIS AND WIND=

USA.gov is the U.S. government's official web portal to all federal, state and local government web resources and services.